When you browse on this site, cookies collect data to enhance your experience and personalize the content and advertising you see.
Visit our Privacy Policy to learn more. By continuing to use the site, you agree to this use of cookies and data.
  • In Hungary
  • List of Countries
  • For 7 days
  • Water Temperature
  • Weather Map
  • News
  • Weather Widgets
  • user-avatar
    Login

    Hourly Weather Yavtukhivka

    Today, 10 April, Friday

    Time Temperature Precipitation Wind Pressure Humidity
    00:00 +10°C° 0 mm 2 mps 750 mmHg 55%
    01:00 +10°C° 0 mm 2 mps 750 mmHg 57%
    02:00 +9°C° 0 mm 2 mps 749 mmHg 59%
    03:00 +9°C° 0 mm 2 mps 749 mmHg 60%
    04:00 +9°C° 0 mm 2 mps 749 mmHg 62%
    05:00 +8°C° 0 mm 3 mps 748 mmHg 63%
    06:00 +10°C° 0 mm 3 mps 748 mmHg 59%
    07:00 +11°C° 0 mm 4 mps 748 mmHg 54%
    08:00 +13°C° 0 mm 4 mps 747 mmHg 50%
    09:00 +14°C° 0 mm 4 mps 747 mmHg 49%
    10:00 +15°C° 0 mm 4 mps 747 mmHg 47%
    11:00 +16°C° 0 mm 5 mps 747 mmHg 46%
    12:00 +14°C° 0.8 mm 6 mps 747 mmHg 55%
    13:00 +11°C° 0.8 mm 7 mps 747 mmHg 65%
    14:00 +9°C° 0.8 mm 8 mps 747 mmHg 74%
    15:00 +10°C° 0.7 mm 7 mps 747 mmHg 68%
    16:00 +10°C° 0.7 mm 7 mps 747 mmHg 61%
    17:00 +10°C° 0.7 mm 6 mps 748 mmHg 55%
    18:00 +9°C° 0 mm 6 mps 748 mmHg 58%
    19:00 +8°C° 0 mm 5 mps 749 mmHg 61%
    20:00 +7°C° 0 mm 5 mps 749 mmHg 64%
    21:00 +6°C° 0 mm 5 mps 749 mmHg 64%
    22:00 +6°C° 0 mm 5 mps 749 mmHg 64%
    23:00 +5°C° 0 mm 5 mps 750 mmHg 64%

    Tomorrow, 11 April, Saturday

    Time Temperature Precipitation Wind Pressure Humidity
    00:00 +5°C° 0 mm 5 mps 750 mmHg 65%
    01:00 +3°C° 0 mm 5 mps 750 mmHg 67%
    02:00 +3°C° 0 mm 5 mps 750 mmHg 69%
    03:00 +2°C° 0 mm 5 mps 751 mmHg 71%
    04:00 +3°C° 0 mm 4 mps 751 mmHg 72%
    05:00 +1°C° 0 mm 4 mps 751 mmHg 74%
    06:00 +3°C° 0 mm 5 mps 751 mmHg 69%
    07:00 +5°C° 0 mm 5 mps 752 mmHg 64%
    08:00 +5°C° 0 mm 6 mps 752 mmHg 58%
    09:00 +7°C° 0 mm 6 mps 752 mmHg 52%
    10:00 +8°C° 0 mm 6 mps 752 mmHg 46%
    11:00 +9°C° 0 mm 7 mps 752 mmHg 40%
    12:00 +9°C° 0 mm 7 mps 752 mmHg 40%
    13:00 +10°C° 0 mm 7 mps 752 mmHg 41%
    14:00 +10°C° 0 mm 7 mps 752 mmHg 41%
    15:00 +9°C° 0.1 mm 7 mps 752 mmHg 43%
    16:00 +9°C° 0.1 mm 7 mps 753 mmHg 44%
    17:00 +8°C° 0.1 mm 7 mps 753 mmHg 45%
    18:00 +7°C° 0 mm 6 mps 753 mmHg 46%
    19:00 +6°C° 0 mm 5 mps 754 mmHg 47%
    20:00 +5°C° 0 mm 5 mps 754 mmHg 47%
    21:00 +4°C° 0 mm 4 mps 755 mmHg 50%
    22:00 +4°C° 0 mm 4 mps 755 mmHg 53%
    23:00 +3°C° 0 mm 4 mps 756 mmHg 56%

    Day after tomorrow, 12 April, Sunday

    Time Temperature Precipitation Wind Pressure Humidity
    00:00 +3°C° 0 mm 4 mps 756 mmHg 59%
    01:00 +1°C° 0 mm 4 mps 756 mmHg 63%
    02:00 +1°C° 0 mm 4 mps 756 mmHg 66%
    03:00 0°C° 0 mm 4 mps 757 mmHg 67%
    04:00 0°C° 0 mm 4 mps 757 mmHg 69%
    05:00 -1°C° 0 mm 4 mps 758 mmHg 70%
    06:00 0°C° 0 mm 4 mps 758 mmHg 61%
    07:00 +1°C° 0 mm 5 mps 758 mmHg 51%
    08:00 +3°C° 0 mm 5 mps 759 mmHg 42%
    09:00 +5°C° 0 mm 5 mps 758 mmHg 38%
    10:00 +6°C° 0 mm 5 mps 758 mmHg 35%
    11:00 +7°C° 0 mm 4 mps 758 mmHg 31%
    12:00 +7°C° 0 mm 4 mps 758 mmHg 30%
    13:00 +8°C° 0 mm 4 mps 758 mmHg 30%
    14:00 +10°C° 0 mm 4 mps 758 mmHg 29%
    15:00 +8°C° 0 mm 4 mps 758 mmHg 30%
    16:00 +8°C° 0 mm 4 mps 757 mmHg 30%
    17:00 +9°C° 0 mm 3 mps 757 mmHg 31%
    18:00 +8°C° 0 mm 3 mps 757 mmHg 35%
    19:00 +7°C° 0 mm 2 mps 757 mmHg 38%
    20:00 +7°C° 0 mm 1 mps 757 mmHg 42%
    21:00 +6°C° 0 mm 1 mps 757 mmHg 44%
    22:00 +5°C° 0 mm 2 mps 757 mmHg 46%
    23:00 +4°C° 0 mm 2 mps 757 mmHg 47%

    13 April, Monday

    Time Temperature Precipitation Wind Pressure Humidity
    00:00 +4°C° 0 mm 2 mps 757 mmHg 48%
    01:00 +4°C° 0 mm 2 mps 757 mmHg 48%
    02:00 +3°C° 0 mm 2 mps 757 mmHg 49%
    03:00 +3°C° 0 mm 2 mps 756 mmHg 49%
    04:00 +2°C° 0 mm 3 mps 756 mmHg 49%
    05:00 +1°C° 0 mm 3 mps 756 mmHg 49%
    06:00 +3°C° 0 mm 3 mps 756 mmHg 47%
    07:00 +5°C° 0 mm 4 mps 756 mmHg 45%
    08:00 +7°C° 0 mm 5 mps 755 mmHg 42%
    09:00 +8°C° 0 mm 5 mps 755 mmHg 40%
    10:00 +10°C° 0 mm 6 mps 754 mmHg 37%
    11:00 +11°C° 0 mm 6 mps 754 mmHg 34%
    12:00 +13°C° 0 mm 6 mps 753 mmHg 34%
    13:00 +13°C° 0 mm 6 mps 753 mmHg 34%
    14:00 +14°C° 0 mm 6 mps 753 mmHg 34%
    15:00 +14°C° 0 mm 6 mps 752 mmHg 37%
    16:00 +14°C° 0 mm 6 mps 751 mmHg 39%
    17:00 +13°C° 0 mm 6 mps 751 mmHg 41%
    18:00 +11°C° 0 mm 6 mps 751 mmHg 45%
    19:00 +10°C° 0 mm 6 mps 750 mmHg 48%
    20:00 +9°C° 0 mm 5 mps 750 mmHg 51%
    21:00 +9°C° 0 mm 6 mps 750 mmHg 52%
    22:00 +8°C° 0 mm 6 mps 750 mmHg 53%
    23:00 +8°C° 0 mm 6 mps 750 mmHg 54%

    14 April, Tuesday

    Time Temperature Precipitation Wind Pressure Humidity
    00:00 +7°C° 0 mm 6 mps 749 mmHg 54%
    01:00 +5°C° 0 mm 6 mps 749 mmHg 54%
    02:00 +5°C° 0 mm 6 mps 749 mmHg 53%
    03:00 +4°C° 0 mm 6 mps 748 mmHg 55%
    04:00 +4°C° 0 mm 6 mps 748 mmHg 58%
    05:00 +3°C° 0 mm 6 mps 748 mmHg 60%
    06:00 +4°C° 0 mm 7 mps 748 mmHg 57%
    07:00 +6°C° 0 mm 8 mps 747 mmHg 55%
    08:00 +7°C° 0 mm 9 mps 747 mmHg 52%
    09:00 +8°C° 0 mm 9 mps 746 mmHg 50%
    10:00 +10°C° 0 mm 9 mps 746 mmHg 49%
    11:00 +11°C° 0 mm 9 mps 745 mmHg 47%
    12:00 +12°C° 0 mm 9 mps 745 mmHg 45%
    13:00 +13°C° 0 mm 9 mps 744 mmHg 43%
    14:00 +13°C° 0 mm 9 mps 744 mmHg 41%
    15:00 +13°C° 0 mm 8 mps 743 mmHg 42%
    16:00 +13°C° 0 mm 8 mps 743 mmHg 44%
    17:00 +12°C° 0 mm 7 mps 743 mmHg 46%
    18:00 +11°C° 0 mm 7 mps 742 mmHg 49%
    19:00 +10°C° 0 mm 7 mps 742 mmHg 52%
    20:00 +9°C° 0 mm 6 mps 742 mmHg 56%
    21:00 +9°C° 0.1 mm 7 mps 742 mmHg 59%
    22:00 +9°C° 0.1 mm 7 mps 741 mmHg 62%
    23:00 +9°C° 0.1 mm 7 mps 741 mmHg 65%

    15 April, Wednesday

    Time Temperature Precipitation Wind Pressure Humidity
    00:00 +8°C° 1.6 mm 7 mps 740 mmHg 74%
    01:00 +7°C° 1.6 mm 6 mps 739 mmHg 82%
    02:00 +5°C° 1.6 mm 6 mps 739 mmHg 91%
    03:00 +3°C° 0.9 mm 7 mps 739 mmHg 92%
    04:00 0°C° 0.9 mm 8 mps 739 mmHg 93%
    05:00 -3°C° 0.9 mm 9 mps 739 mmHg 95%
    06:00 -3°C° 0.5 mm 9 mps 739 mmHg 91%
    07:00 -3°C° 0.5 mm 9 mps 740 mmHg 88%
    08:00 -1°C° 0.5 mm 9 mps 740 mmHg 85%
    09:00 0°C° 0.2 mm 8 mps 741 mmHg 75%
    10:00 +1°C° 0.2 mm 8 mps 741 mmHg 66%
    11:00 +2°C° 0.2 mm 8 mps 742 mmHg 56%
    12:00 +4°C° 0.3 mm 8 mps 742 mmHg 54%
    13:00 +4°C° 0.3 mm 8 mps 742 mmHg 53%
    14:00 +5°C° 0.3 mm 8 mps 742 mmHg 51%
    15:00 +4°C° 0.3 mm 7 mps 743 mmHg 53%
    16:00 +4°C° 0.3 mm 7 mps 743 mmHg 54%
    17:00 +4°C° 0.3 mm 7 mps 743 mmHg 56%
    18:00 +3°C° 0.1 mm 7 mps 743 mmHg 60%
    19:00 +3°C° 0.1 mm 6 mps 743 mmHg 63%
    20:00 +2°C° 0.1 mm 6 mps 744 mmHg 67%
    21:00 +2°C° 0 mm 6 mps 744 mmHg 69%
    22:00 0°C° 0 mm 7 mps 744 mmHg 70%
    23:00 0°C° 0 mm 7 mps 744 mmHg 72%
    Show more